Flag for Trinidad and Tobago Weather past 2 weeks in Port of Spain, Trinidad and Tobago

81 °F

Passing clouds.

Feels Like: 86 °F
Forecast: N/A
Wind: 10 mph from Southeast

Location: Piarco International Airport - Trinidad

Current Time: Nov 28, 2015 at 7:09:05 PM

Latest Report: Nov 28, 2015 at 5:00 PM

Visibility: N/A

Pressure: 29.80 "Hg

Humidity: 84%

Dew point: 75 °F

Location of Port of SpainLocation

Historic Weather in Port of Spain — Graph


Port of Spain temperature yesterday

Maximum temperature yesterday: 88 °F (at 1:00 PM)
Minimum temperature yesterday: 75 °F (at 6:00 AM)
Average temperature yesterday: 80 °F

Past Weeks' High & Low Weather Summary

High91 °F (Nov 17, 3:00 PM)100% (Nov 15, 4:00 AM)29.98 "Hg (Nov 15, 4:00 AM)
Low72 °F (Nov 21, 5:00 AM)55% (Nov 14, 11:00 AM)29.74 "Hg (Nov 20, 3:00 PM)
Average80 °F85%29.86 "Hg
* Reported Nov 13 5:00 PM — Nov 28 5:00 PM, Port of Spain, Weather by CustomWeather, © 2015

Note: Actual official high and low records may vary slightly from our data, if they occured in-between our weather recording intervals... More about our weather records


Port of Spain weather history for previous 24 hours

Time TempWeatherWind HumidityBarometerVisibility
5:00 PM
Sat, Nov 28
81 °FPassing clouds.10 mph84%29.80 "HgN/A
4:00 PM84 °FPassing clouds.12 mph79%29.80 "HgN/A
3:00 PM88 °FPassing clouds.13 mph70%29.80 "HgN/A
2:00 PM88 °FScattered clouds.14 mph70%29.80 "HgN/A
1:00 PM84 °FScattered clouds.18 mph74%29.83 "HgN/A
12:00 PM86 °FSprinkles. Partly sunny.15 mph75%29.86 "HgN/A
11:00 AM86 °FPartly sunny.14 mph75%29.89 "HgN/A
10:00 AM81 °FScattered showers. Partly sunny.7 mph89%29.89 "Hg4 mi
9:00 AM88 °FScattered showers. Partly sunny.14 mph75%29.86 "HgN/A
8:00 AM81 °FScattered showers. Scattered clouds.No wind89%29.89 "HgN/A
7:00 AM79 °FScattered showers. Partly sunny.12 mph94%29.86 "Hg6 mi
6:00 AM77 °FScattered showers. Passing clouds.No wind94%29.83 "HgN/A
5:00 AM77 °FScattered showers. Passing clouds.10 mph94%29.83 "HgN/A
4:00 AM75 °FPassing clouds.No wind100%29.80 "HgN/A
3:00 AM75 °FPassing clouds.No wind100%29.80 "HgN/A
2:00 AM75 °FPassing clouds.No wind100%29.83 "HgN/A
1:00 AM75 °FPassing clouds.No wind100%29.83 "HgN/A
12:00 AM77 °FSprinkles. Passing clouds.7 mph94%29.86 "HgN/A
11:00 PM
Fri, Nov 27
77 °FPassing clouds.9 mph94%29.89 "HgN/A
10:00 PM79 °FPassing clouds.9 mph94%29.89 "HgN/A
9:00 PM79 °FPassing clouds.No wind94%29.86 "HgN/A
8:00 PM79 °FPassing clouds.No wind94%29.86 "HgN/A
7:00 PM79 °FPassing clouds.5 mph94%29.83 "HgN/A
Weather by CustomWeather, © 2015

See weather overviewHow to use our weather pages